Avoca, PA

7:32 PM EDT on May 22, 2017 (GMT -0400)
Wilkes-Barre-Scranton International

Weather History for KAVP - February, 2014

Change the Weather History Date:

Wednesday, February 26, 2014

  Actual Average Record
Temperature  
Mean Temperature 15 °F 31 °F  
Max Temperature 22 °F 40 °F 66 °F (1976)
Min Temperature 7 °F 23 °F 1 °F (1970)
Degree Days  
Heating Degree Days 50 34  
Month to date heating degree days 1046 948  
Since 1 July heating degree days 4717 4539  
Cooling Degree Days 0 0  
Month to date cooling degree days 0 0  
Year to date cooling degree days 0 0  
Moisture  
Dew Point 6 °F    
Average Humidity 62    
Maximum Humidity 84    
Minimum Humidity 39    
Precipitation  
Precipitation T in 0.07 in 1.24 in (1908)
Month to date precipitation 2.77 1.89  
Year to date precipitation 4.88 4.26  
Sea Level Pressure  
Sea Level Pressure 29.87 in    
Wind  
Wind Speed 8 mph (West)    
Max Wind Speed 22 mph    
Max Gust Speed 30 mph    
Visibility 8 miles    
Events Snow    
T = Trace of Precipitation, MM = Missing Value Source: NWS Daily Summary

Daily Weather History Graph

Daily Weather History Graph

Search for Another Location

Airport or City:

Trip Planner

Search our weather history database for the weather conditions in past years. The results will help you decide how hot, cold, wet, or windy it might be!

Date:

Astronomy

Feb. 26, 2014 Rise Set
Actual Time 6:41 AM EST 5:50 PM EST
Civil Twilight 6:14 AM EST 6:17 PM EST
Nautical Twilight 5:42 AM EST 6:50 PM EST
Astronomical Twilight 5:10 AM EST 7:22 PM EST
Moon 4:27 AM EST (2/26) 3:00 PM EST (2/26)
Length of Visible Light 12h 03m
Length of Day
11h 08m
Waning Crescent, 10% of the Moon is Illuminated
Feb 26
Waning Crescent
Mar 1
New
Mar 8
First Quarter
Mar 16
Full
Mar 23
Last Quarter

Hourly Weather History & Observations

Time (EST) Temp. Windchill Dew Point Humidity Pressure Visibility Wind Dir Wind Speed Gust Speed Precip Events Conditions
12:54 AM 16.0 °F 8.8 °F 7.0 °F 68% 29.94 in 10.0 mi WSW 4.6 mph - N/A   Clear
1:54 AM 15.1 °F 4.2 °F 7.0 °F 70% 29.93 in 10.0 mi SSW 8.1 mph - N/A   Mostly Cloudy
2:54 AM 17.1 °F 7.6 °F 8.1 °F 68% 29.90 in 10.0 mi SW 6.9 mph - N/A   Overcast
3:54 AM 19.0 °F 12.3 °F 10.0 °F 68% 29.87 in 10.0 mi SW 4.6 mph - N/A   Partly Cloudy
4:54 AM 19.0 °F 13.9 °F 10.9 °F 71% 29.86 in 10.0 mi WSW 3.5 mph - N/A   Mostly Cloudy
5:54 AM 19.0 °F 12.3 °F 10.9 °F 71% 29.85 in 10.0 mi SW 4.6 mph - N/A   Overcast
6:54 AM 19.0 °F 11.1 °F 14.0 °F 81% 29.85 in 8.0 mi SW 5.8 mph - N/A   Overcast
7:54 AM 19.9 °F 11.1 °F 15.1 °F 81% 29.86 in 7.0 mi SW 6.9 mph - N/A   Overcast
8:18 AM 19.4 °F 9.5 °F 15.8 °F 86% 29.84 in 1.8 mi WSW 8.1 mph - 0.00 in Snow Light Snow
8:31 AM 19.4 °F 9.5 °F 15.8 °F 86% 29.85 in 3.0 mi WSW 8.1 mph - 0.00 in Snow Light Snow
8:51 AM 19.4 °F 4.5 °F 15.8 °F 86% 29.86 in 1.8 mi West 17.3 mph 21.9 mph 0.00 in Snow Light Snow
8:54 AM 19.9 °F 6.7 °F 14.0 °F 78% 29.90 in 1.0 mi West 13.8 mph 21.9 mph 0.00 in Snow Light Snow
9:03 AM 19.4 °F 6.0 °F 14.0 °F 80% 29.86 in 3.0 mi West 13.8 mph 21.9 mph 0.00 in Snow Light Snow
9:33 AM 19.4 °F 5.0 °F 12.2 °F 74% 29.88 in 7.0 mi NW 16.1 mph 23.0 mph 0.00 in Snow Light Snow
9:43 AM 19.4 °F 6.0 °F 12.2 °F 74% 29.88 in 1.8 mi WNW 13.8 mph 24.2 mph 0.00 in Snow Light Snow
9:54 AM 19.0 °F 5.0 °F 10.9 °F 71% 29.93 in 1.0 mi WNW 15.0 mph 24.2 mph 0.00 in Snow Light Snow
10:09 AM 19.4 °F 7.2 °F 10.4 °F 68% 29.88 in 2.5 mi NW 11.5 mph - 0.00 in Snow Light Snow
10:16 AM 19.4 °F 5.0 °F 10.4 °F 68% 29.89 in 6.0 mi NNW 16.1 mph 20.7 mph 0.00 in   Overcast
10:36 AM 19.4 °F 7.2 °F 10.4 °F 68% 29.88 in 9.0 mi WNW 11.5 mph - 0.00 in   Overcast
10:54 AM 19.9 °F 7.9 °F 5.0 °F 52% 29.92 in 10.0 mi WNW 11.5 mph 21.9 mph 0.00 in   Overcast
11:54 AM 21.0 °F 8.1 °F -0.0 °F 40% 29.90 in 10.0 mi NW 13.8 mph 25.3 mph N/A   Overcast
12:54 PM 19.9 °F 5.7 °F 5.0 °F 52% 29.89 in 10.0 mi NW 16.1 mph - N/A   Overcast
1:54 PM 21.0 °F 7.6 °F 1.9 °F 44% 29.86 in 10.0 mi NNW 15.0 mph 24.2 mph N/A   Mostly Cloudy
2:54 PM 21.0 °F 7.6 °F 1.0 °F 42% 29.86 in 10.0 mi NW 15.0 mph - N/A   Clear
3:54 PM 19.9 °F 7.3 °F -0.9 °F 40% 29.85 in 10.0 mi North 12.7 mph - N/A   Clear
4:54 PM 19.9 °F 8.6 °F -2.9 °F 37% 29.84 in 10.0 mi North 10.4 mph - N/A   Clear
5:54 PM 18.0 °F 5.4 °F -4.0 °F 38% 29.84 in 10.0 mi NW 11.5 mph - N/A   Clear
6:54 PM 15.1 °F - -2.9 °F 45% 29.86 in 10.0 mi Calm Calm - N/A   Clear
7:54 PM 15.1 °F - -4.0 °F 43% 29.84 in 10.0 mi Calm Calm - N/A   Clear
8:54 PM 12.9 °F 5.2 °F -4.0 °F 47% 29.85 in 10.0 mi ESE 4.6 mph - N/A   Clear
9:54 PM 10.0 °F 0.4 °F -5.1 °F 51% 29.85 in 10.0 mi SSE 5.8 mph - N/A   Clear
10:54 PM 8.1 °F -2.0 °F -5.1 °F 55% 29.84 in 10.0 mi Variable 5.8 mph - N/A   Clear
11:54 PM 7.0 °F -1.7 °F -5.1 °F 58% 29.82 in 10.0 mi Variable 4.6 mph - N/A   Scattered Clouds